GW0422 Weather Reports


Display with metric or nautical units.
time (UTC)temp
F
wind
direction
speed
MPH
gust
MPH
rain 1hr
in
rain 24hr
in
rain mn
in
humidity
%
barometer
mb
20260502160415 65 350 0.0 3.0 0.00 0.00 0.00 58 1013.4
20260502151405 65 42 0.0 4.0 0.00 0.00 0.00 60 1014.0
20260502150413 65 31 2.0 4.0 0.00 0.00 0.00 58 1014.1
20260502130407 61 110 1.0 8.0 0.00 0.00 0.00 64 1014.9
20260502123413 62 87 0.0 4.0 0.00 0.00 0.00 67 1015.6
20260502122415 61 40 2.0 6.0 0.00 0.00 0.00 68 1015.6
20260502121858 61 67 1.0 5.0 0.00 0.00 0.00 69 1016.0
20260502120904 60 231 1.0 7.0 0.00 0.00 0.00 69 1015.9
20260502115916 60 250 1.0 4.0 0.00 0.00 0.00 69 1015.9
20260502115400 60 170 2.0 6.0 0.00 0.00 0.00 68 1015.9
20260502114401 60 35 1.0 5.0 0.00 0.00 0.00 69 1016.2
20260502113413 60 196 3.0 6.0 0.00 0.00 0.00 67 1016.0
20260502112409 61 56 0.0 4.0 0.00 0.00 0.00 67 1016.5
20260502111416 61 72 0.0 6.0 0.00 0.00 0.00 70 1016.2
20260502110356 61 10 1.0 6.0 0.00 0.00 0.00 67 1016.0
20260502105359 61 316 1.0 5.0 0.00 0.00 0.00 67 1016.1
20260502104405 60 44 1.0 6.0 0.00 0.00 0.00 70 1016.4
20260502103409 60 136 1.0 8.0 0.00 0.00 0.00 71 1016.3
20260502102409 60 142 3.0 8.0 0.00 0.00 0.00 70 1016.4
20260502101413 59 50 1.0 6.0 0.00 0.00 0.00 71 1016.4
20260502100414 59 197 1.0 4.0 0.00 0.00 0.00 72 1016.3
20260502090911 56 183 1.0 7.0 0.00 0.00 0.00 75 1016.4
20260502090408 57 141 1.0 6.0 0.00 0.00 0.00 75 1016.5
20260502071411 52 134 0.0 7.0 0.00 0.00 0.00 85 1016.6
20260502070530 51 183 0.0 3.0 0.00 0.00 0.00 87 1016.2
20260502044412 50 187 0.0 3.0 0.00 0.00 0.00 91 1016.7
20260502043420 50 153 0.0 1.0 0.00 0.00 0.00 91 1016.7
20260502042412 50 153 0.0 0.0 0.00 0.00 0.00 91 1016.6
20260502041415 50 153 0.0 0.0 0.00 0.00 0.00 91 1016.6
20260502040913 50 153 0.0 0.0 0.00 0.00 0.00 91 1016.7
20260502040411 50 153 0.0 0.0 0.00 0.00 0.00 91 1016.7
20260502034917 49 153 0.0 4.0 0.00 0.00 0.00 92 1016.8
20260502033921 49 158 0.0 1.0 0.00 0.00 0.00 92 1016.8
20260502032923 48 158 0.0 2.0 0.00 0.00 0.00 92 1016.7
20260502032406 48 158 0.0 0.0 0.00 0.00 0.00 92 1016.7
20260502031408 47 158 0.0 0.0 0.00 0.00 0.00 91 1016.7
20260502030412 47 158 0.0 0.0 0.00 0.00 0.00 91 1016.8
20260502025412 47 158 0.0 0.0 0.00 0.00 0.00 90 1016.7
20260502024420 47 158 0.0 0.0 0.00 0.00 0.00 90 1016.9
20260502023425 47 158 0.0 0.0 0.00 0.00 0.00 89 1016.9
20260502022906 47 158 0.0 0.0 0.00 0.00 0.00 89 1016.9
20260502021908 47 158 0.0 0.0 0.00 0.00 0.00 87 1016.8
20260502020911 48 158 0.0 0.0 0.00 0.00 0.00 87 1016.9
20260502015919 49 158 0.0 0.0 0.00 0.00 0.00 87 1016.9
20260502014922 49 158 0.0 2.0 0.00 0.00 0.00 87 1016.8
20260502013923 50 290 0.0 2.0 0.00 0.00 0.00 87 1017.1
20260502012911 51 142 0.0 2.0 0.00 0.00 0.00 87 1017.0
20260502011920 51 142 0.0 1.0 0.00 0.00 0.00 88 1017.3
20260502010949 51 24 0.0 3.0 0.00 0.00 0.00 88 1017.4
20260502005906 51 360 0.0 2.0 0.00 0.00 0.00 88 1017.5
20260502004909 51 360 0.0 2.0 0.00 0.00 0.00 87 1017.5
20260502003912 52 360 0.0 2.0 0.00 0.00 0.00 87 1017.6
20260502002925 52 319 0.0 3.0 0.00 0.00 0.00 87 1017.7
20260502001905 52 133 0.0 2.0 0.00 0.00 0.00 87 1017.8
20260502000910 53 194 0.0 0.0 0.00 0.00 0.00 87 1017.8
20260501235914 53 194 0.0 3.0 0.00 0.00 0.00 87 1017.6
20260501234921 53 185 0.0 2.0 0.00 0.00 0.00 87 1017.8
20260501234412 53 328 0.0 1.0 0.00 0.00 0.00 87 1017.8
20260501233413 53 63 0.0 1.0 0.00 0.00 0.00 87 1017.8
20260501232913 53 101 0.0 2.0 0.00 0.00 0.00 87 1017.7
20260501232414 53 101 0.0 3.0 0.00 0.00 0.00 87 1017.9
20260501231559 54 167 0.0 2.0 0.00 0.00 0.00 86 1017.8
20260501230906 54 212 0.0 3.0 0.00 0.00 0.00 86 1017.8
20260501225936 54 70 0.0 4.0 0.00 0.00 0.00 86 1017.7
20260501224909 54 106 0.0 3.0 0.00 0.00 0.00 86 1017.8
20260501223910 54 10 0.0 3.0 0.00 0.00 0.00 86 1017.7
20260501222913 54 99 0.0 4.0 0.00 0.00 0.00 85 1017.8
20260501222411 54 78 0.0 2.0 0.00 0.00 0.00 85 1017.8
20260501221418 54 316 0.0 3.0 0.00 0.00 0.00 85 1017.8
20260501220420 54 88 0.0 2.0 0.00 0.00 0.00 85 1017.8
20260501215415 55 87 1.0 4.0 0.00 0.00 0.00 85 1017.8
20260501214907 55 145 0.0 7.0 0.00 0.00 0.00 84 1017.9
20260501213913 55 37 0.0 4.0 0.00 0.00 0.00 84 1017.9
20260501212914 55 114 0.0 6.0 0.00 0.00 0.00 83 1017.8
20260501211915 55 271 1.0 5.0 0.00 0.00 0.00 82 1017.7
20260501210917 55 93 1.0 5.0 0.00 0.00 0.00 81 1017.7
20260501205924 56 177 2.0 7.0 0.00 0.00 0.00 80 1017.8
20260501204925 56 200 1.0 6.0 0.00 0.00 0.00 79 1017.6
20260501204407 56 139 0.0 5.0 0.00 0.00 0.00 78 1017.4
20260501203408 57 196 0.0 3.0 0.00 0.00 0.00 77 1017.5
20260501202909 57 183 0.0 3.0 0.00 0.00 0.00 77 1017.5
20260501201908 57 202 0.0 4.0 0.00 0.00 0.00 76 1017.5
20260501200915 58 113 0.0 3.0 0.00 0.00 0.00 75 1017.5
20260501200410 58 98 0.0 4.0 0.00 0.00 0.00 75 1017.5
20260501194918 58 125 0.0 7.0 0.00 0.00 0.00 74 1017.6
20260501193920 58 245 1.0 5.0 0.00 0.00 0.00 73 1017.6
20260501192921 59 150 0.0 2.0 0.00 0.00 0.00 72 1017.4
20260501191924 59 135 0.0 4.0 0.00 0.00 0.00 72 1017.6
20260501191405 59 53 1.0 5.0 0.00 0.00 0.00 71 1017.6
20260501190412 60 104 1.0 4.0 0.00 0.00 0.00 71 1017.4
20260501185414 60 110 3.0 7.0 0.00 0.00 0.00 70 1017.2
20260501184420 61 139 1.0 5.0 0.00 0.00 0.00 70 1017.3
20260501182924 62 93 1.0 6.0 0.00 0.00 0.00 69 1017.3
20260501182405 62 112 0.0 3.0 0.00 0.00 0.00 68 1017.3
20260501181413 63 196 1.0 4.0 0.00 0.00 0.00 67 1017.1
20260501180416 64 110 1.0 5.0 0.00 0.00 0.00 65 1017.2
20260501175423 65 113 0.0 2.0 0.00 0.00 0.00 63 1017.0
20260501174422 67 116 1.0 3.0 0.00 0.00 0.00 62 1016.9
20260501173409 68 136 0.0 3.0 0.00 0.00 0.00 60 1017.0
20260501172411 69 131 0.0 3.0 0.00 0.00 0.00 59 1017.0
20260501171408 69 69 1.0 4.0 0.00 0.00 0.00 61 1017.0
20260501170417 69 56 0.0 3.0 0.00 0.00 0.00 60 1016.9
20260501165418 69 110 0.0 3.0 0.00 0.00 0.00 61 1017.0
20260501164421 70 23 0.0 4.0 0.00 0.00 0.00 59 1017.1
20260501163424 71 208 0.0 4.0 0.00 0.00 0.00 57 1017.2
20260501162422 71 204 0.0 5.0 0.00 0.00 0.00 55 1017.0
20260501161410 72 150 0.0 2.0 0.00 0.00 0.00 55 1017.1